OpenBCM V1.13 (Linux)

Packet Radio Mailbox

DB0FHN

[JN59NK Nuernberg]

 Login: GUEST





  
CX2SA  > KEPS     17.11.21 21:07l 608 Lines 29726 Bytes #999 (0) @ WW
BID : ORB21315.N
Read: DL8SFG DJ6UX GUEST
Subj: 2Line Orbital Elements 21315.AMSAT
Path: DB0FHN<DB0RBS<DB0ERF<DK0WUE<PE1RRR<PY2BIL<TI0RC<HR1PAQ<CX2SA
Sent: 211112/0331Z @:CX2SA.SAL.URY.SOAM #:912 [Salto] FBB7.00e $:ORB21315.N
From: CX2SA@CX2SA.SAL.URY.SOAM
To  : KEPS@AMSAT


HR AMSAT ORBITAL ELEMENTS FOR AMATEUR SATELLITES IN NASA FORMAT
FROM WA5QGD FORT WORTH,TX November 11, 2021
BID: ORB21315.N

DECODE 2-LINE ELSETS WITH THE FOLLOWING KEY:
1 AAAAAU 00  0  0 BBBBB.BBBBBBBB  .CCCCCCCC  00000-0  00000-0 0  DDDZ
2 AAAAA EEE.EEEE FFF.FFFF GGGGGGG HHH.HHHH III.IIII JJ.JJJJJJJJKKKKKZ
KEY: A-CATALOGNUM B-EPOCHTIME C-DECAY D-ELSETNUM E-INCLINATION F-RAAN
G-ECCENTRICITY H-ARGPERIGEE I-MNANOM J-MNMOTION K-ORBITNUM Z-CHECKSUM

TO ALL RADIO AMATEURS BT

AO-07
1 07530U 74089B   21315.57474965 -.00000026  00000-0  12054-3 0  9996
2 07530 101.8759 290.0237 0012475  98.9063  13.2029 12.53651258150163
UO-11
1 14781U 84021B   21315.58712882  .00000245  00000-0  35946-4 0  9991
2 14781  97.6020 308.2541 0007520 326.8585  33.2158 14.83363200  7741
LO-19
1 20442U 90005G   21315.81506624  .00000031  00000-0  27853-4 0  9993
2 20442  98.7621 272.7551 0012857  88.0554 272.2101 14.33005873661999
HUBBLE
1 20580U 90037B   21315.35094523  .00000880  00000-0  42047-4 0  9994
2 20580  28.4689 172.9887 0002591 202.2859 320.5363 15.09835176533212
MET-2/21
1 22782U 93055A   21315.57843023 -.00000003  00000-0 -16045-4 0  9992
2 22782  82.5506 187.1551 0021297 237.7229 185.5655 13.83841021423870
AO-27
1 22825U 93061C   21315.65183629  .00000006  00000-0  20145-4 0  9992
2 22825  98.9101 336.8296 0007895 332.6604  27.4160 14.30131152467298
IO-26
1 22826U 93061D   21315.58728946  .00000013  00000-0  22944-4 0  9999
2 22826  98.9043 336.6591 0008234 318.5928  41.4629 14.30472145467263
FO-29
1 24278U 96046B   21315.74534404 -.00000060  00000-0 -28070-4 0  9990
2 24278  98.5484   4.0845 0351138 127.8863 235.4586 13.53107583246416
NOAA-15
1 25338U 98030A   21315.99014488  .00000041  00000-0  35492-4 0  9998
2 25338  98.6694 343.1065 0009942 205.9676 154.1007 14.26069251222275
GO-32
1 25397U 98043D   21315.56896861  .00000019  00000-0  28115-4 0  9992
2 25397  98.7883 260.8181 0001968  49.2892 310.8457 14.23721280212648
ISS
1 25544U 98067A   21316.06126698 -.00014225  00000-0 -25440-3 0  9995
2 25544  51.6431 331.5323 0005112 189.9357 282.9080 15.48550182311512
NO-44
1 26931U 01043C   21315.54824817  .00000015  00000-0  37436-4 0  9993
2 26931  67.0511 260.8084 0005790 276.9771  83.0672 14.30642639 50392
SO-50
1 27607U 02058C   21315.55201598  .00000218  00000-0  51441-4 0  9994
2 27607  64.5553 248.4961 0059001 339.9287  19.9495 14.75828585 16425
CO-55
1 27844U 03031E   21315.57177489  .00000097  00000-0  63031-4 0  9995
2 27844  98.6814 321.5615 0010166  19.0943 341.0614 14.22348991952936
CO-57
1 27848U 03031J   21315.82003900  .00000077  00000-0  54859-4 0  9999
2 27848  98.6866 322.3593 0010270  31.5285 328.6506 14.21920823952788
RS-22
1 27939U 03042A   21315.70744071  .00000275  00000-0  57678-4 0  9992
2 27939  98.1626  91.9639 0013241 169.7336 190.4146 14.67058955969118
NOAA-18
1 28654U 05018A   21315.91207291  .00000101  00000-0  78652-4 0  9996
2 28654  98.9781  21.2459 0013697 222.9753 137.0350 14.12656112849355
CO-58
1 28895U 05043F   21315.44464880  .00000312  00000-0  68385-4 0  9994
2 28895  98.0794  85.6537 0017981 106.8421 253.4755 14.64003396855514
Falconsat-3
1 30776U 07006E   21315.24006476  .00009383  00000-0  20878-3 0  9998
2 30776  35.4330 235.6546 0002848 215.8094 144.2444 15.42894848815779
CO-65
1 32785U 08021C   21315.45520951  .00000574  00000-0  66765-4 0  9999
2 32785  97.6300 288.7418 0011589 232.3001 127.7167 14.88887735734111
AAUSAT2
1 32788U 08021F   21315.53247701  .00001586  00000-0  14635-3 0  9992
2 32788  97.5168 304.1353 0012821 130.1202 230.1145 14.95933479735845
DO-64
1 32789U 08021G   21315.59162739  .00002743  00000-0  17315-3 0  9990
2 32789  97.3635 345.2557 0011352   5.0055 355.1286 15.09843740739024
CO-66
1 32791U 08021J   21314.94933553  .00000942  00000-0  99011-4 0  9994
2 32791  97.5877 294.0108 0012608 191.8168 168.2757 14.91641597734616
RS-30
1 32953U 08025A   21315.75329926  .00000021  00000-0  80971-4 0  9994
2 32953  82.5022 319.3235 0019889  19.4683 340.7156 12.43105706611288
PRISM
1 33493U 09002B   21315.49802318  .00000838  00000-0  76309-4 0  9998
2 33493  98.2082 285.3051 0014689 155.0906 205.1027 14.98070038696335
NOAA-19
1 33591U 09005A   21316.03135447  .00000037  00000-0  45083-4 0  9999
2 33591  99.1738 340.3301 0014825  79.5286 280.7555 14.12507499657755
SRMSAT
1 37841U 11058D   21315.76358424  .00000326  00000-0  33957-4 0  9991
2 37841  19.9707 130.7153 0011892 112.1532 321.9683 14.10711584520689
HRBE
1 37855U 11061F   21315.57709620  .00004528  00000-0  21843-3 0  9995
2 37855 101.7246 315.4755 0163874 352.9188   6.9712 15.08678226548351
RS-40
1 38735U 12041C   21315.53704841  .00000021  00000-0  77971-4 0  9996
2 38735  82.4812  41.3748 0018062 124.2131 236.0658 12.42583800421450
ZACUBE-1
1 39417U 13066B   21315.47797309  .00000682  00000-0  90561-4 0  9999
2 39417  97.6103 292.3230 0059502  40.3272 320.2332 14.81670431430841
Delfi-N3xt
1 39428U 13066N   21315.56853871  .00000746  00000-0  12498-3 0  9991
2 39428  97.7942 254.7246 0117842 254.0108 104.8091 14.68247796426558
GOMX-1
1 39430U 13066Q   21315.70910525  .00000893  00000-0  16871-3 0  9992
2 39430  97.8126 230.3084 0150933  11.5731 348.8875 14.59738094424523
LO-74
1 39440U 13066AA  21315.46289162  .00000476  00000-0  71941-4 0  9999
2 39440  97.6965 277.7065 0080923 118.0635 242.8788 14.76382390428112
AO-73
1 39444U 13066AE  21315.50581393  .00000829  00000-0  10639-3 0  9997
2 39444  97.5999 294.7359 0058300  29.9507 330.5021 14.82610601429223
SPROUT
1 39770U 14029E   21315.75044426  .00002859  00000-0  31045-3 0  9996
2 39770  97.9290  67.0283 0010156  85.6560 274.5811 14.88891830405257
DTUSAT-2
1 40030U 14033W   21315.78573009  .00000653  00000-0  75054-4 0  9998
2 40030  97.9219 243.0311 0013074  54.2150 306.0280 14.89172028401750
EO-80
1 40032U 14033Y   21315.55136319  .00000761  00000-0  86589-4 0  9999
2 40032  97.9223 242.8056 0013016  55.8011 304.4438 14.89133747401188
HODOYOSHI-1
1 40299U 14070B   21315.82510569  .00001938  00000-0  79936-4 0  9993
2 40299  97.2719  25.3347 0012664 179.9838 317.5845 15.25165612389871
FIREBIRD FU3
1 40377U 15003B   21315.77847505  .00004190  00000-0  14785-3 0  9997
2 40377  99.1144 128.2086 0114170  39.1260 321.8158 15.24015221375223
FIREBIRD FU4
1 40378U 15003C   21315.42122150  .00004327  00000-0  15221-3 0  9990
2 40378  99.1148 127.9416 0114202  40.0686 320.8900 15.24078319375164
GRIFEX
1 40379U 15003D   21315.73980661  .00003466  00000-0  13740-3 0  9991
2 40379  99.1139 116.3354 0126148  74.7683 286.7453 15.19245597374543
NO-84
1 40654U 15025D   21313.39112687  .00169183  21496-4  48195-3 0  2334
2 40654  54.9688  70.0370 0041236  90.5983 269.9540 15.91495693 29927
XW-2A
1 40903U 15049E   21315.82213758  .00006709  00000-0  13500-3 0  9997
2 40903  97.2171   9.8259 0011491 188.2204 282.3701 15.46869163345564
XW-2C
1 40906U 15049H   21315.86480506  .00002182  00000-0  11294-3 0  9990
2 40906  97.4905 316.4509 0015638  40.9290  76.7167 15.17186797339911
XW-2D
1 40907U 15049J   21315.82628650  .00002224  00000-0  11386-3 0  9990
2 40907  97.4902 316.2638 0014925  37.8072  83.8566 15.17565687339945
LILACSAT-2
1 40908U 15049K   21315.81189934  .00001128  00000-0  64333-4 0  9990
2 40908  97.5117 313.8745 0017152  54.1469  24.1801 15.14699013339537
XW-2E
1 40909U 15049L   21315.85997895  .00003478  00000-0  16302-3 0  9990
2 40909  97.4682 320.4910 0013599  23.9814  96.0229 15.20281766340321
XW-2F
1 40910U 15049M   21315.84612448  .00003393  00000-0  16139-3 0  9993
2 40910  97.4746 319.5691 0014702  23.3808  97.2226 15.19777332340106
XW-2B
1 40911U 15049N   21315.83762911  .00002152  00000-0  11059-3 0  9992
2 40911  97.4900 316.9330 0014849  38.8922  84.0686 15.17476325339838
DCBB
1 40912U 15049P   21315.85698125  .00003854  00000-0  16942-3 0  9996
2 40912  97.4445 323.9640 0013779 353.7067 127.9153 15.22419374340616
TW-1A
1 40928U 15051D   21315.83779140  .00010356  00000-0  19736-3 0  9990
2 40928  97.0662 337.3155 0010897 107.8294  16.8669 15.48295036344479
IO-86
1 40931U 15052B   21314.49650104  .00000870  00000-0  31993-4 0  9994
2 40931   5.9977 290.8412 0013644 309.6632  50.2338 14.76703938330925
ATHENOXAT-1
1 41168U 15077C   21315.24081985  .00005439  00000-0  23418-3 0  9991
2 41168  14.9893 261.2028 0010493  61.8304 337.5867 15.16635500327098
ChubuSat-2
1 41338U 16012B   21315.73880493  .00000709  00000-0  47861-4 0  9999
2 41338  31.0038 329.2438 0013638 153.7377 206.3952 15.00688056314746
ChubuSat-3
1 41339U 16012C   21315.74786440  .00000869  00000-0  60009-4 0  9994
2 41339  31.0124 326.2706 0013512 163.2930 196.8140 15.00824106314740
Horyu-4
1 41340U 16012D   21315.68567657  .00001169  00000-0  80050-4 0  9998
2 41340  31.0053 308.3527 0013799 195.3196 164.7023 15.02154474314944
e-st@r-II
1 41459U 16025D   21315.86994595  .00004336  00000-0  20983-3 0  9995
2 41459  98.1625 101.1486 0156001 285.4965  72.9080 15.09087020304644
AAUSAT4
1 41460U 16025E   21315.64528853  .00006498  00000-0  29423-3 0  9992
2 41460  98.1596 105.5709 0141927 267.6469  90.8492 15.12651187304956
LO-87
1 41557U 16033B   21315.76609529  .00004485  00000-0  15453-3 0  9993
2 41557  97.3933  48.9554 0014044  74.3253  43.4854 15.30448062304053
NuSat2
1 41558U 16033C   21315.76131502  .00004683  00000-0  15104-3 0  9998
2 41558  97.4074  53.4806 0012986  67.0673  53.6306 15.32575272304275
Lapan A3
1 41603U 16040E   21315.72553068  .00000522  00000-0  27112-4 0  9999
2 41603  97.2380 356.9240 0012533 198.7378 300.8380 15.20164585298953
